Flag for Germany Weather past 2 weeks in Zwickau, Saxony, Germany

Now
63 °F

Scattered clouds.


Feels Like: 63 °F
Forecast: 46 / 72 °F
Wind: 6 mph from Northeast

Location: Altenburg Nobitz


UV Index: 3 (Moderate)

Visibility: N/A


Pressure: 30.07 "Hg

Humidity: 68%

Dew point: 52 °F

Location of ZwickauLocation

Historic Weather in Zwickau

°F

Zwickau temperature yesterday

Maximum temperature yesterday: 68 °F (at 2:20 PM)
Minimum temperature yesterday: 54 °F (at 8:20 AM)
Average temperature yesterday: 64 °F

Past Weeks' High & Low Weather Summary

 TemperatureHumidityPressure
High68 °F (Apr 22, 3:20 PM)100% (Apr 19, 9:20 AM)30.45 "Hg (Apr 19, 9:20 AM)
Low37 °F (Apr 19, 9:20 AM)31% (Apr 17, 4:50 PM)29.68 "Hg (Apr 21, 12:50 PM)
Average54 °F64%30.03 "Hg
* Reported Apr 9 7:20 PM — Apr 24 7:50 PM, Zwickau, Weather by CustomWeather, © 2014

Note: Actual official high and low records may vary slightly from our data, if they occured in-between our weather recording intervals... More about our weather records

Advertising

Historic Weather Conditions — Data for Previous 24 hours

 ConditionsComfort  
Time TempWeatherWind HumidityBarometerVisibility
7:50 PM
Apr 24
63 °FScattered clouds.6 mph68%30.07 "HgN/A
7:20 PM63 °FScattered clouds.9 mph73%30.07 "HgN/A
6:50 PM64 °FScattered clouds.8 mph68%30.07 "HgN/A
6:20 PM64 °FScattered clouds.10 mph64%30.07 "HgN/A
5:50 PM66 °FScattered clouds.9 mph64%30.07 "HgN/A
5:20 PM66 °FScattered clouds.10 mph64%30.07 "HgN/A
4:50 PM64 °FScattered clouds.10 mph68%30.07 "HgN/A
4:20 PM66 °FScattered clouds.13 mph64%30.07 "HgN/A
3:50 PM66 °FPassing clouds.12 mph64%30.07 "HgN/A
3:20 PM66 °FPassing clouds.12 mph68%30.09 "HgN/A
2:50 PM64 °FPassing clouds.8 mph68%30.09 "HgN/A
2:20 PM64 °FPassing clouds.9 mph68%30.09 "Hg6 mi
1:50 PM64 °FPassing clouds.10 mph68%30.12 "Hg6 mi
1:20 PM63 °FClear.9 mph73%30.12 "Hg5 mi
12:50 PM63 °FClear.8 mph77%30.12 "Hg4 mi
12:20 PM61 °FClear.8 mph77%30.12 "Hg4 mi
11:50 AM57 °FClear.8 mph88%30.15 "Hg4 mi
11:20 AM55 °FClear.7 mph88%30.15 "Hg3 mi
10:50 AM54 °FFog.8 mph94%30.15 "Hg2 mi
10:20 AM54 °FClear.9 mph88%30.15 "Hg3 mi
9:50 AM55 °FClear.6 mph82%30.15 "Hg4 mi
9:20 AM55 °FClear.2 mph82%30.15 "Hg4 mi
8:50 AM52 °FClear.3 mph88%30.15 "Hg4 mi
8:20 AM52 °FClear.3 mph88%30.15 "Hg4 mi
Weather by CustomWeather, © 2014

See weather overview